Regional Weather Roundup
Issued by NWS

Home | Current Version | Previous Version | Graphics & Text | Print | Product List | Glossary On
Versions: 1 2 3 4 5 6 7 8 9 10 11 12 13 14 15 16 17 18 19 20 21 22 23 24 25 26 27 28 29 30 31 32 33 34 35 36 37 38 39 40 41 42 43 44 45 46 47 48 49 50
000
ASUS45 KCYS 251010
RWRWY

WYOMING REGIONAL WEATHER ROUNDUP
NATIONAL WEATHER SERVICE CHEYENNE WY
400 AM MDT MON JUL 25 2016

NOTE:  "FAIR" INDICATES FEW OR NO CLOUDS BELOW 12,000 FEET
WITH NO SIGNIFICANT WEATHER AND/OR OBSTRUCTIONS TO VISIBILITY.

WYZ001-251100-
YELLOWSTONE NATIONAL PARK

CITY           SKY/WX    TMP DP  RH WIND       PRES   REMARKS
LK YELLOWSTONE   N/A     38  32  79 NW3       30.37R
W YELLOWSTONE  NOT AVBL

$$
WYZ002>013-054>058-071-098>099-251100-
NORTHERN WYOMING

CITY           SKY/WX    TMP DP  RH WIND       PRES   REMARKS
JACKSON        FAIR      43  34  70 N6        30.27S
CODY           FAIR      66  34  30 SW8       30.13S
GREYBULL       FAIR      63  35  35 NE3       30.04F
WORLAND        FAIR      56  28  34 SE6       30.06S
SHERIDAN       FAIR      58  44  60 CALM      30.05S
BUFFALO        FAIR      65  39  38 S7        30.13S
GILLETTE       FAIR      64  52  64 S9        30.11R
HULETT         FAIR      68  50  52 W6        30.11S
NEWCASTLE      FAIR      68  48  49 E12G22    30.15S

$$
WYZ014>020-022>026-101>103-251100-
CENTRAL WYOMING

CITY           SKY/WX    TMP DP  RH WIND       PRES   REMARKS
BIG PINEY      FAIR      44  24  45 NE5       30.30S
PINEDALE       FAIR      37  32  81 NW7       30.31S WCI  32
DUBOIS         CLOUDY    48  27  43 W10       30.30S HAZE
LANDER         FAIR      64  31  28 SW8       30.17S
RIVERTON       FAIR      58  36  43 NW9       30.15S
CASPER         FAIR      50  45  83 NW3       30.15S
DOUGLAS          N/A    N/A N/A N/A MISG      30.15S

$$
WYZ021-027>030-104>119-251100-
SOUTHERN WYOMING

CITY           SKY/WX    TMP DP  RH WIND       PRES   REMARKS
EVANSTON       FAIR      58  23  26 SE6       30.30S
KEMMERER         N/A     46  28  49 NW10      30.32R
FORT BRIDGER   FAIR      69  17  13 CALM      30.32S
ROCK SPRINGS   FAIR      57  15  19 SW7       30.26S
DIXON          FAIR      48  35  60 CALM      30.29R
RAWLINS        FAIR      47  31  53 CALM      30.26S
SARATOGA       FAIR      57  36  44 S9        30.28S
LARAMIE        FAIR      52  50  93 S10       30.29F
CHEYENNE       FAIR      56  54  93 S12       30.25S
TORRINGTON     FAIR      61  55  81 SE9       30.14F
PINE BLUFFS    FAIR      54  54 100 S7        30.23S

$$



USA.gov is the U.S. government's official web portal to all federal, state and local government web resources and services.